owner,sensor,date,latitude,longitude,air_pressure(mBar),qcFlag 
COMPS,ioos:station:USF.COMPS:ANM:1,2011-04-01T02:00:00Z,27.5400,-82.7400,1008.68,1111122 
COMPS,ioos:station:USF.COMPS:ANM:1,2011-04-01T02:06:00Z,27.5400,-82.7400,1008.57,1111122 
COMPS,ioos:station:USF.COMPS:ANM:1,2011-04-01T02:12:00Z,27.5400,-82.7400,1008.7,1111122 
COMPS,ioos:station:USF.COMPS:ANM:1,2011-04-01T02:18:00Z,27.5400,-82.7400,1008.86,1111122 
COMPS,ioos:station:USF.COMPS:ANM:1,2011-04-01T02:24:00Z,27.5400,-82.7400,1009.08,1111122 
COMPS,ioos:station:USF.COMPS:ANM:1,2011-04-01T02:30:00Z,27.5400,-82.7400,1009.14,1111122 
COMPS,ioos:station:USF.COMPS:ANM:1,2011-04-01T02:36:00Z,27.5400,-82.7400,1009.05,1111122 
COMPS,ioos:station:USF.COMPS:ANM:1,2011-04-01T02:42:00Z,27.5400,-82.7400,1008.89,1111122 
COMPS,ioos:station:USF.COMPS:ANM:1,2011-04-01T02:48:00Z,27.5400,-82.7400,1008.76,1111122 
COMPS,ioos:station:USF.COMPS:ANM:1,2011-04-01T02:54:00Z,27.5400,-82.7400,1008.72,1111122 
COMPS,ioos:station:USF.COMPS:ANM:1,2011-04-01T07:00:00Z,27.5400,-82.7400,1008.49,1111122 
COMPS,ioos:station:USF.COMPS:ANM:1,2011-04-01T07:06:00Z,27.5400,-82.7400,1008.58,1111122 
COMPS,ioos:station:USF.COMPS:ANM:1,2011-04-01T07:12:00Z,27.5400,-82.7400,1008.72,1111122 
COMPS,ioos:station:USF.COMPS:ANM:1,2011-04-01T07:18:00Z,27.5400,-82.7400,1008.69,1111122 
COMPS,ioos:station:USF.COMPS:ANM:1,2011-04-01T07:24:00Z,27.5400,-82.7400,1008.7,1111122 
COMPS,ioos:station:USF.COMPS:ANM:1,2011-04-01T07:30:00Z,27.5400,-82.7400,1008.72,1111122 
COMPS,ioos:station:USF.COMPS:ANM:1,2011-04-01T07:36:00Z,27.5400,-82.7400,1008.78,1111122 
COMPS,ioos:station:USF.COMPS:ANM:1,2011-04-01T07:42:00Z,27.5400,-82.7400,1008.82,1111122 
COMPS,ioos:station:USF.COMPS:ANM:1,2011-04-01T07:48:00Z,27.5400,-82.7400,1008.82,1111122 
COMPS,ioos:station:USF.COMPS:ANM:1,2011-04-01T07:54:00Z,27.5400,-82.7400,1008.81,1111122 
COMPS,ioos:station:USF.COMPS:ANM:1,2011-04-01T10:00:00Z,27.5400,-82.7400,1009.45,1111122 
COMPS,ioos:station:USF.COMPS:ANM:1,2011-04-01T10:06:00Z,27.5400,-82.7400,1009.58,1111122 
COMPS,ioos:station:USF.COMPS:ANM:1,2011-04-01T10:12:00Z,27.5400,-82.7400,1009.6,1111122 
COMPS,ioos:station:USF.COMPS:ANM:1,2011-04-01T10:18:00Z,27.5400,-82.7400,1009.66,1111122 
COMPS,ioos:station:USF.COMPS:ANM:1,2011-04-01T10:24:00Z,27.5400,-82.7400,1009.7,1111122 
COMPS,ioos:station:USF.COMPS:ANM:1,2011-04-01T10:30:00Z,27.5400,-82.7400,1009.74,1111122 
COMPS,ioos:station:USF.COMPS:ANM:1,2011-04-01T10:36:00Z,27.5400,-82.7400,1009.57,1111122 
COMPS,ioos:station:USF.COMPS:ANM:1,2011-04-01T10:42:00Z,27.5400,-82.7400,1009.6,1111122 
COMPS,ioos:station:USF.COMPS:ANM:1,2011-04-01T10:48:00Z,27.5400,-82.7400,1009.64,1111122 
COMPS,ioos:station:USF.COMPS:ANM:1,2011-04-01T10:54:00Z,27.5400,-82.7400,1009.81,1111122 
COMPS,ioos:station:USF.COMPS:ANM:1,2011-04-01T14:00:00Z,27.5400,-82.7400,1013.3,1111122 
COMPS,ioos:station:USF.COMPS:ANM:1,2011-04-01T14:06:00Z,27.5400,-82.7400,1013.32,1111122 
COMPS,ioos:station:USF.COMPS:ANM:1,2011-04-01T14:12:00Z,27.5400,-82.7400,1013.41,1111122 
COMPS,ioos:station:USF.COMPS:ANM:1,2011-04-01T14:18:00Z,27.5400,-82.7400,1013.4,1111122 
COMPS,ioos:station:USF.COMPS:ANM:1,2011-04-01T14:24:00Z,27.5400,-82.7400,1013.37,1111122 
COMPS,ioos:station:USF.COMPS:ANM:1,2011-04-01T14:30:00Z,27.5400,-82.7400,1013.3,1111122 
COMPS,ioos:station:USF.COMPS:ANM:1,2011-04-01T14:36:00Z,27.5400,-82.7400,1013.2,1111122 
COMPS,ioos:station:USF.COMPS:ANM:1,2011-04-01T14:42:00Z,27.5400,-82.7400,1013.2,1111122 
COMPS,ioos:station:USF.COMPS:ANM:1,2011-04-01T14:48:00Z,27.5400,-82.7400,1013.3,1111122 
COMPS,ioos:station:USF.COMPS:ANM:1,2011-04-01T14:54:00Z,27.5400,-82.7400,1013.32,1111122 
COMPS,ioos:station:USF.COMPS:ANM:1,2011-04-01T20:00:00Z,27.5400,-82.7400,1012.82,1111122 
COMPS,ioos:station:USF.COMPS:ANM:1,2011-04-01T20:06:00Z,27.5400,-82.7400,1012.78,1111122 
COMPS,ioos:station:USF.COMPS:ANM:1,2011-04-01T20:12:00Z,27.5400,-82.7400,1012.65,1111122 
COMPS,ioos:station:USF.COMPS:ANM:1,2011-04-01T20:18:00Z,27.5400,-82.7400,1012.73,1111122 
COMPS,ioos:station:USF.COMPS:ANM:1,2011-04-01T20:24:00Z,27.5400,-82.7400,1012.82,1111122 
COMPS,ioos:station:USF.COMPS:ANM:1,2011-04-01T20:30:00Z,27.5400,-82.7400,1012.76,1111122 
COMPS,ioos:station:USF.COMPS:ANM:1,2011-04-01T20:36:00Z,27.5400,-82.7400,1012.76,1111122 
COMPS,ioos:station:USF.COMPS:ANM:1,2011-04-01T20:42:00Z,27.5400,-82.7400,1012.77,1111122 
COMPS,ioos:station:USF.COMPS:ANM:1,2011-04-01T20:48:00Z,27.5400,-82.7400,1012.8,1111122 
COMPS,ioos:station:USF.COMPS:ANM:1,2011-04-01T20:54:00Z,27.5400,-82.7400,1012.74,1111122 
COMPS,ioos:station:USF.COMPS:ANM:1,2011-04-01T23:00:00Z,27.5400,-82.7400,1012.85,1111122 
COMPS,ioos:station:USF.COMPS:ANM:1,2011-04-01T23:06:00Z,27.5400,-82.7400,1012.97,1111122 
COMPS,ioos:station:USF.COMPS:ANM:1,2011-04-01T23:12:00Z,27.5400,-82.7400,1013.09,1111122 
COMPS,ioos:station:USF.COMPS:ANM:1,2011-04-01T23:18:00Z,27.5400,-82.7400,1013.18,1111122 
COMPS,ioos:station:USF.COMPS:ANM:1,2011-04-01T23:24:00Z,27.5400,-82.7400,1013.24,1111122 
COMPS,ioos:station:USF.COMPS:ANM:1,2011-04-01T23:30:00Z,27.5400,-82.7400,1013.37,1111122 
COMPS,ioos:station:USF.COMPS:ANM:1,2011-04-01T23:36:00Z,27.5400,-82.7400,1013.48,1111122 
COMPS,ioos:station:USF.COMPS:ANM:1,2011-04-01T23:42:00Z,27.5400,-82.7400,1013.42,1111122 
COMPS,ioos:station:USF.COMPS:ANM:1,2011-04-01T23:48:00Z,27.5400,-82.7400,1013.49,1111122 
COMPS,ioos:station:USF.COMPS:ANM:1,2011-04-01T23:54:00Z,27.5400,-82.7400,1013.54,1111122 
COMPS,ioos:station:USF.COMPS:ANM:1,2011-04-02T02:00:00Z,27.5400,-82.7400,1015.16,1111122 
COMPS,ioos:station:USF.COMPS:ANM:1,2011-04-02T02:06:00Z,27.5400,-82.7400,1015.25,1111122 
COMPS,ioos:station:USF.COMPS:ANM:1,2011-04-02T02:12:00Z,27.5400,-82.7400,1015.3,1111122 
COMPS,ioos:station:USF.COMPS:ANM:1,2011-04-02T02:18:00Z,27.5400,-82.7400,1015.33,1111122 
COMPS,ioos:station:USF.COMPS:ANM:1,2011-04-02T02:24:00Z,27.5400,-82.7400,1015.41,1111122 
COMPS,ioos:station:USF.COMPS:ANM:1,2011-04-02T02:30:00Z,27.5400,-82.7400,1015.44,1111122 
COMPS,ioos:station:USF.COMPS:ANM:1,2011-04-02T02:36:00Z,27.5400,-82.7400,1015.45,1111122 
COMPS,ioos:station:USF.COMPS:ANM:1,2011-04-02T02:42:00Z,27.5400,-82.7400,1015.5,1111122 
COMPS,ioos:station:USF.COMPS:ANM:1,2011-04-02T02:48:00Z,27.5400,-82.7400,1015.57,1111122 
COMPS,ioos:station:USF.COMPS:ANM:1,2011-04-02T02:54:00Z,27.5400,-82.7400,1015.58,1111122 
COMPS,ioos:station:USF.COMPS:ANM:1,2011-04-02T05:00:00Z,27.5400,-82.7400,1015.85,1111122 
COMPS,ioos:station:USF.COMPS:ANM:1,2011-04-02T05:06:00Z,27.5400,-82.7400,1015.88,1111122 
COMPS,ioos:station:USF.COMPS:ANM:1,2011-04-02T05:12:00Z,27.5400,-82.7400,1015.85,1111122 
COMPS,ioos:station:USF.COMPS:ANM:1,2011-04-02T05:18:00Z,27.5400,-82.7400,1015.85,1111122 
COMPS,ioos:station:USF.COMPS:ANM:1,2011-04-02T05:24:00Z,27.5400,-82.7400,1015.9,1111122 
COMPS,ioos:station:USF.COMPS:ANM:1,2011-04-02T05:30:00Z,27.5400,-82.7400,1015.98,1111122 
COMPS,ioos:station:USF.COMPS:ANM:1,2011-04-02T05:36:00Z,27.5400,-82.7400,1015.94,1111122 
COMPS,ioos:station:USF.COMPS:ANM:1,2011-04-02T05:42:00Z,27.5400,-82.7400,1015.85,1111122 
COMPS,ioos:station:USF.COMPS:ANM:1,2011-04-02T05:48:00Z,27.5400,-82.7400,1015.85,1111122 
COMPS,ioos:station:USF.COMPS:ANM:1,2011-04-02T05:54:00Z,27.5400,-82.7400,1015.77,1111122 
COMPS,ioos:station:USF.COMPS:ANM:1,2011-04-02T08:00:00Z,27.5400,-82.7400,1015.0,1111122 
COMPS,ioos:station:USF.COMPS:ANM:1,2011-04-02T08:06:00Z,27.5400,-82.7400,1014.9,1111122 
COMPS,ioos:station:USF.COMPS:ANM:1,2011-04-02T08:12:00Z,27.5400,-82.7400,1014.8,1111122 
COMPS,ioos:station:USF.COMPS:ANM:1,2011-04-02T08:18:00Z,27.5400,-82.7400,1014.9,1111122 
COMPS,ioos:station:USF.COMPS:ANM:1,2011-04-02T08:24:00Z,27.5400,-82.7400,1014.98,1111122 
COMPS,ioos:station:USF.COMPS:ANM:1,2011-04-02T08:30:00Z,27.5400,-82.7400,1014.98,1111122 
COMPS,ioos:station:USF.COMPS:ANM:1,2011-04-02T08:36:00Z,27.5400,-82.7400,1014.77,1111122 
COMPS,ioos:station:USF.COMPS:ANM:1,2011-04-02T08:42:00Z,27.5400,-82.7400,1014.65,1111122 
COMPS,ioos:station:USF.COMPS:ANM:1,2011-04-02T08:48:00Z,27.5400,-82.7400,1014.64,1111122 
COMPS,ioos:station:USF.COMPS:ANM:1,2011-04-02T08:54:00Z,27.5400,-82.7400,1014.56,1111122 
COMPS,ioos:station:USF.COMPS:ANM:1,2011-04-02T11:00:00Z,27.5400,-82.7400,1015.3,1111122 
COMPS,ioos:station:USF.COMPS:ANM:1,2011-04-02T11:06:00Z,27.5400,-82.7400,1015.38,1111122 
COMPS,ioos:station:USF.COMPS:ANM:1,2011-04-02T11:12:00Z,27.5400,-82.7400,1015.62,1111122 
COMPS,ioos:station:USF.COMPS:ANM:1,2011-04-02T11:18:00Z,27.5400,-82.7400,1015.8,1111122 
COMPS,ioos:station:USF.COMPS:ANM:1,2011-04-02T11:24:00Z,27.5400,-82.7400,1016.02,1111122 
COMPS,ioos:station:USF.COMPS:ANM:1,2011-04-02T11:30:00Z,27.5400,-82.7400,1016.28,1111122 
COMPS,ioos:station:USF.COMPS:ANM:1,2011-04-02T11:36:00Z,27.5400,-82.7400,1016.4,1111122 
COMPS,ioos:station:USF.COMPS:ANM:1,2011-04-02T11:42:00Z,27.5400,-82.7400,1016.49,1111122 
COMPS,ioos:station:USF.COMPS:ANM:1,2011-04-02T11:48:00Z,27.5400,-82.7400,1016.56,1111122 
COMPS,ioos:station:USF.COMPS:ANM:1,2011-04-02T11:54:00Z,27.5400,-82.7400,1016.68,1111122 
COMPS,ioos:station:USF.COMPS:ANM:1,2011-04-02T14:00:00Z,27.5400,-82.7400,1017.97,1111122 
COMPS,ioos:station:USF.COMPS:ANM:1,2011-04-02T14:06:00Z,27.5400,-82.7400,1018.08,1111122 
COMPS,ioos:station:USF.COMPS:ANM:1,2011-04-02T14:12:00Z,27.5400,-82.7400,1018.17,1111122 
COMPS,ioos:station:USF.COMPS:ANM:1,2011-04-02T14:18:00Z,27.5400,-82.7400,1018.17,1111122 
COMPS,ioos:station:USF.COMPS:ANM:1,2011-04-02T14:24:00Z,27.5400,-82.7400,1018.18,1111122 
COMPS,ioos:station:USF.COMPS:ANM:1,2011-04-02T14:30:00Z,27.5400,-82.7400,1018.17,1111122 
COMPS,ioos:station:USF.COMPS:ANM:1,2011-04-02T14:36:00Z,27.5400,-82.7400,1018.14,1111122 
COMPS,ioos:station:USF.COMPS:ANM:1,2011-04-02T14:42:00Z,27.5400,-82.7400,1018.14,1111122 
COMPS,ioos:station:USF.COMPS:ANM:1,2011-04-02T14:48:00Z,27.5400,-82.7400,1018.18,1111122 
COMPS,ioos:station:USF.COMPS:ANM:1,2011-04-02T14:54:00Z,27.5400,-82.7400,1018.21,1111122 
COMPS,ioos:station:USF.COMPS:ANM:1,2011-04-02T16:00:00Z,27.5400,-82.7400,1018.26,1111122 
COMPS,ioos:station:USF.COMPS:ANM:1,2011-04-02T16:06:00Z,27.5400,-82.7400,1018.12,1111122 
COMPS,ioos:station:USF.COMPS:ANM:1,2011-04-02T16:12:00Z,27.5400,-82.7400,1017.93,1111122 
COMPS,ioos:station:USF.COMPS:ANM:1,2011-04-02T16:18:00Z,27.5400,-82.7400,1017.88,1111122 
COMPS,ioos:station:USF.COMPS:ANM:1,2011-04-02T16:24:00Z,27.5400,-82.7400,1017.88,1111122 
COMPS,ioos:station:USF.COMPS:ANM:1,2011-04-02T16:30:00Z,27.5400,-82.7400,1017.88,1111122 
COMPS,ioos:station:USF.COMPS:ANM:1,2011-04-02T16:36:00Z,27.5400,-82.7400,1017.89,1111122 
COMPS,ioos:station:USF.COMPS:ANM:1,2011-04-02T16:42:00Z,27.5400,-82.7400,1018.0,1111122 
COMPS,ioos:station:USF.COMPS:ANM:1,2011-04-02T16:48:00Z,27.5400,-82.7400,1018.09,1111122 
COMPS,ioos:station:USF.COMPS:ANM:1,2011-04-02T16:54:00Z,27.5400,-82.7400,1018.29,1111122 
COMPS,ioos:station:USF.COMPS:ANM:1,2011-04-02T19:00:00Z,27.5400,-82.7400,1017.25,1111122 
COMPS,ioos:station:USF.COMPS:ANM:1,2011-04-02T19:06:00Z,27.5400,-82.7400,1017.2,1111122 
COMPS,ioos:station:USF.COMPS:ANM:1,2011-04-02T19:12:00Z,27.5400,-82.7400,1017.14,1111122 
COMPS,ioos:station:USF.COMPS:ANM:1,2011-04-02T19:18:00Z,27.5400,-82.7400,1017.02,1111122 
COMPS,ioos:station:USF.COMPS:ANM:1,2011-04-02T19:24:00Z,27.5400,-82.7400,1016.93,1111122 
COMPS,ioos:station:USF.COMPS:ANM:1,2011-04-02T19:30:00Z,27.5400,-82.7400,1016.94,1111122 
COMPS,ioos:station:USF.COMPS:ANM:1,2011-04-02T19:36:00Z,27.5400,-82.7400,1016.94,1111122 
COMPS,ioos:station:USF.COMPS:ANM:1,2011-04-02T19:42:00Z,27.5400,-82.7400,1016.89,1111122 
COMPS,ioos:station:USF.COMPS:ANM:1,2011-04-02T19:48:00Z,27.5400,-82.7400,1016.85,1111122 
COMPS,ioos:station:USF.COMPS:ANM:1,2011-04-02T19:54:00Z,27.5400,-82.7400,1016.84,1111122 
COMPS,ioos:station:USF.COMPS:ANM:1,2011-04-03T01:00:00Z,27.5400,-82.7400,1017.69,1111122 
COMPS,ioos:station:USF.COMPS:ANM:1,2011-04-03T01:06:00Z,27.5400,-82.7400,1017.69,1111122 
COMPS,ioos:station:USF.COMPS:ANM:1,2011-04-03T01:12:00Z,27.5400,-82.7400,1017.69,1111122 
COMPS,ioos:station:USF.COMPS:ANM:1,2011-04-03T01:18:00Z,27.5400,-82.7400,1017.74,1111122 
COMPS,ioos:station:USF.COMPS:ANM:1,2011-04-03T01:24:00Z,27.5400,-82.7400,1017.86,1111122 
COMPS,ioos:station:USF.COMPS:ANM:1,2011-04-03T01:30:00Z,27.5400,-82.7400,1017.92,1111122 
COMPS,ioos:station:USF.COMPS:ANM:1,2011-04-03T01:36:00Z,27.5400,-82.7400,1017.98,1111122 
COMPS,ioos:station:USF.COMPS:ANM:1,2011-04-03T01:42:00Z,27.5400,-82.7400,1018.12,1111122 
COMPS,ioos:station:USF.COMPS:ANM:1,2011-04-03T01:48:00Z,27.5400,-82.7400,1018.21,1111122 
COMPS,ioos:station:USF.COMPS:ANM:1,2011-04-03T01:54:00Z,27.5400,-82.7400,1018.29,1111122 
COMPS,ioos:station:USF.COMPS:ANM:1,2011-04-03T04:00:00Z,27.5400,-82.7400,1018.54,1111122 
COMPS,ioos:station:USF.COMPS:ANM:1,2011-04-03T04:06:00Z,27.5400,-82.7400,1018.54,1111122 
COMPS,ioos:station:USF.COMPS:ANM:1,2011-04-03T04:12:00Z,27.5400,-82.7400,1018.53,1111122 
COMPS,ioos:station:USF.COMPS:ANM:1,2011-04-03T04:18:00Z,27.5400,-82.7400,1018.5,1111122 
COMPS,ioos:station:USF.COMPS:ANM:1,2011-04-03T04:24:00Z,27.5400,-82.7400,1018.46,1111122 
COMPS,ioos:station:USF.COMPS:ANM:1,2011-04-03T04:30:00Z,27.5400,-82.7400,1018.4,1111122 
COMPS,ioos:station:USF.COMPS:ANM:1,2011-04-03T04:36:00Z,27.5400,-82.7400,1018.38,1111122 
COMPS,ioos:station:USF.COMPS:ANM:1,2011-04-03T04:42:00Z,27.5400,-82.7400,1018.38,1111122 
COMPS,ioos:station:USF.COMPS:ANM:1,2011-04-03T04:48:00Z,27.5400,-82.7400,1018.48,1111122 
COMPS,ioos:station:USF.COMPS:ANM:1,2011-04-03T04:54:00Z,27.5400,-82.7400,1018.48,1111122 
COMPS,ioos:station:USF.COMPS:ANM:1,2011-04-03T07:00:00Z,27.5400,-82.7400,1018.3,1111122 
COMPS,ioos:station:USF.COMPS:ANM:1,2011-04-03T07:06:00Z,27.5400,-82.7400,1018.34,1111122 
COMPS,ioos:station:USF.COMPS:ANM:1,2011-04-03T07:12:00Z,27.5400,-82.7400,1018.37,1111122 
COMPS,ioos:station:USF.COMPS:ANM:1,2011-04-03T07:18:00Z,27.5400,-82.7400,1018.32,1111122 
COMPS,ioos:station:USF.COMPS:ANM:1,2011-04-03T07:24:00Z,27.5400,-82.7400,1018.26,1111122 
COMPS,ioos:station:USF.COMPS:ANM:1,2011-04-03T07:30:00Z,27.5400,-82.7400,1018.28,1111122 
COMPS,ioos:station:USF.COMPS:ANM:1,2011-04-03T07:36:00Z,27.5400,-82.7400,1018.25,1111122 
COMPS,ioos:station:USF.COMPS:ANM:1,2011-04-03T07:42:00Z,27.5400,-82.7400,1018.22,1111122 
COMPS,ioos:station:USF.COMPS:ANM:1,2011-04-03T07:48:00Z,27.5400,-82.7400,1018.25,1111122 
COMPS,ioos:station:USF.COMPS:ANM:1,2011-04-03T07:54:00Z,27.5400,-82.7400,1018.25,1111122 
COMPS,ioos:station:USF.COMPS:ANM:1,2011-04-03T10:00:00Z,27.5400,-82.7400,1018.97,1111122 
COMPS,ioos:station:USF.COMPS:ANM:1,2011-04-03T10:06:00Z,27.5400,-82.7400,1018.97,1111122 
COMPS,ioos:station:USF.COMPS:ANM:1,2011-04-03T10:12:00Z,27.5400,-82.7400,1019.06,1111122 
COMPS,ioos:station:USF.COMPS:ANM:1,2011-04-03T10:18:00Z,27.5400,-82.7400,1019.08,1111122 
COMPS,ioos:station:USF.COMPS:ANM:1,2011-04-03T10:24:00Z,27.5400,-82.7400,1019.2,1111122 
COMPS,ioos:station:USF.COMPS:ANM:1,2011-04-03T10:30:00Z,27.5400,-82.7400,1019.24,1111122 
COMPS,ioos:station:USF.COMPS:ANM:1,2011-04-03T10:36:00Z,27.5400,-82.7400,1019.33,1111122 
COMPS,ioos:station:USF.COMPS:ANM:1,2011-04-03T10:42:00Z,27.5400,-82.7400,1019.38,1111122 
COMPS,ioos:station:USF.COMPS:ANM:1,2011-04-03T10:48:00Z,27.5400,-82.7400,1019.45,1111122 
COMPS,ioos:station:USF.COMPS:ANM:1,2011-04-03T10:54:00Z,27.5400,-82.7400,1019.52,1111122 
COMPS,ioos:station:USF.COMPS:ANM:1,2011-04-03T13:00:00Z,27.5400,-82.7400,1021.04,1111122 
COMPS,ioos:station:USF.COMPS:ANM:1,2011-04-03T13:06:00Z,27.5400,-82.7400,1021.13,1111122 
COMPS,ioos:station:USF.COMPS:ANM:1,2011-04-03T13:12:00Z,27.5400,-82.7400,1021.14,1111122 
COMPS,ioos:station:USF.COMPS:ANM:1,2011-04-03T13:18:00Z,27.5400,-82.7400,1021.25,1111122 
COMPS,ioos:station:USF.COMPS:ANM:1,2011-04-03T13:24:00Z,27.5400,-82.7400,1021.29,1111122 
COMPS,ioos:station:USF.COMPS:ANM:1,2011-04-03T13:30:00Z,27.5400,-82.7400,1021.38,1111122 
COMPS,ioos:station:USF.COMPS:ANM:1,2011-04-03T13:36:00Z,27.5400,-82.7400,1021.4,1111122 
COMPS,ioos:station:USF.COMPS:ANM:1,2011-04-03T13:42:00Z,27.5400,-82.7400,1021.49,1111122 
COMPS,ioos:station:USF.COMPS:ANM:1,2011-04-03T13:48:00Z,27.5400,-82.7400,1021.52,1111122 
COMPS,ioos:station:USF.COMPS:ANM:1,2011-04-03T13:54:00Z,27.5400,-82.7400,1021.5,1111122 
COMPS,ioos:station:USF.COMPS:ANM:1,2011-04-03T16:00:00Z,27.5400,-82.7400,1021.32,1111122 
COMPS,ioos:station:USF.COMPS:ANM:1,2011-04-03T16:06:00Z,27.5400,-82.7400,1021.25,1111122 
COMPS,ioos:station:USF.COMPS:ANM:1,2011-04-03T16:12:00Z,27.5400,-82.7400,1021.21,1111122 
COMPS,ioos:station:USF.COMPS:ANM:1,2011-04-03T16:18:00Z,27.5400,-82.7400,1021.12,1111122 
COMPS,ioos:station:USF.COMPS:ANM:1,2011-04-03T16:24:00Z,27.5400,-82.7400,1021.1,1111122 
COMPS,ioos:station:USF.COMPS:ANM:1,2011-04-03T16:30:00Z,27.5400,-82.7400,1021.02,1111122 
COMPS,ioos:station:USF.COMPS:ANM:1,2011-04-03T16:36:00Z,27.5400,-82.7400,1020.98,1111122 
COMPS,ioos:station:USF.COMPS:ANM:1,2011-04-03T16:42:00Z,27.5400,-82.7400,1021.0,1111122 
COMPS,ioos:station:USF.COMPS:ANM:1,2011-04-03T16:48:00Z,27.5400,-82.7400,1020.93,1111122 
COMPS,ioos:station:USF.COMPS:ANM:1,2011-04-03T16:54:00Z,27.5400,-82.7400,1020.85,1111122 
COMPS,ioos:station:USF.COMPS:ANM:1,2011-04-03T19:00:00Z,27.5400,-82.7400,1019.09,1111122 
COMPS,ioos:station:USF.COMPS:ANM:1,2011-04-03T19:06:00Z,27.5400,-82.7400,1019.0,1111122 
COMPS,ioos:station:USF.COMPS:ANM:1,2011-04-03T19:12:00Z,27.5400,-82.7400,1018.93,1111122 
COMPS,ioos:station:USF.COMPS:ANM:1,2011-04-03T19:18:00Z,27.5400,-82.7400,1018.81,1111122 
COMPS,ioos:station:USF.COMPS:ANM:1,2011-04-03T19:24:00Z,27.5400,-82.7400,1018.69,1111122 
COMPS,ioos:station:USF.COMPS:ANM:1,2011-04-03T19:30:00Z,27.5400,-82.7400,1018.58,1111122 
COMPS,ioos:station:USF.COMPS:ANM:1,2011-04-03T19:36:00Z,27.5400,-82.7400,1018.49,1111122 
COMPS,ioos:station:USF.COMPS:ANM:1,2011-04-03T19:42:00Z,27.5400,-82.7400,1018.36,1111122 
COMPS,ioos:station:USF.COMPS:ANM:1,2011-04-03T19:48:00Z,27.5400,-82.7400,1018.32,1111122 
COMPS,ioos:station:USF.COMPS:ANM:1,2011-04-03T19:54:00Z,27.5400,-82.7400,1018.21,1111122 
COMPS,ioos:station:USF.COMPS:ANM:1,2011-04-03T22:00:00Z,27.5400,-82.7400,1017.46,1111122 
COMPS,ioos:station:USF.COMPS:ANM:1,2011-04-03T22:06:00Z,27.5400,-82.7400,1017.54,1111122 
COMPS,ioos:station:USF.COMPS:ANM:1,2011-04-03T22:12:00Z,27.5400,-82.7400,1017.6,1111122 
COMPS,ioos:station:USF.COMPS:ANM:1,2011-04-03T22:18:00Z,27.5400,-82.7400,1017.6,1111122 
COMPS,ioos:station:USF.COMPS:ANM:1,2011-04-03T22:24:00Z,27.5400,-82.7400,1017.6,1111122 
COMPS,ioos:station:USF.COMPS:ANM:1,2011-04-03T22:30:00Z,27.5400,-82.7400,1017.61,1111122 
COMPS,ioos:station:USF.COMPS:ANM:1,2011-04-03T22:36:00Z,27.5400,-82.7400,1017.7,1111122 
COMPS,ioos:station:USF.COMPS:ANM:1,2011-04-03T22:42:00Z,27.5400,-82.7400,1017.73,1111122 
COMPS,ioos:station:USF.COMPS:ANM:1,2011-04-03T22:48:00Z,27.5400,-82.7400,1017.73,1111122 
COMPS,ioos:station:USF.COMPS:ANM:1,2011-04-03T22:54:00Z,27.5400,-82.7400,1017.73,1111122 
COMPS,ioos:station:USF.COMPS:ANM:1,2011-04-04T01:00:00Z,27.5400,-82.7400,1018.28,1111122 
COMPS,ioos:station:USF.COMPS:ANM:1,2011-04-04T01:06:00Z,27.5400,-82.7400,1018.26,1111122 
COMPS,ioos:station:USF.COMPS:ANM:1,2011-04-04T01:12:00Z,27.5400,-82.7400,1018.26,1111122 
COMPS,ioos:station:USF.COMPS:ANM:1,2011-04-04T01:18:00Z,27.5400,-82.7400,1018.29,1111122 
COMPS,ioos:station:USF.COMPS:ANM:1,2011-04-04T01:24:00Z,27.5400,-82.7400,1018.37,1111122 
COMPS,ioos:station:USF.COMPS:ANM:1,2011-04-04T01:30:00Z,27.5400,-82.7400,1018.49,1111122 
COMPS,ioos:station:USF.COMPS:ANM:1,2011-04-04T01:36:00Z,27.5400,-82.7400,1018.5,1111122 
COMPS,ioos:station:USF.COMPS:ANM:1,2011-04-04T01:42:00Z,27.5400,-82.7400,1018.54,1111122 
COMPS,ioos:station:USF.COMPS:ANM:1,2011-04-04T01:48:00Z,27.5400,-82.7400,1018.66,1111122 
COMPS,ioos:station:USF.COMPS:ANM:1,2011-04-04T01:54:00Z,27.5400,-82.7400,1018.77,1111122 
COMPS,ioos:station:USF.COMPS:ANM:1,2011-04-04T04:00:00Z,27.5400,-82.7400,1019.09,1111122 
COMPS,ioos:station:USF.COMPS:ANM:1,2011-04-04T04:06:00Z,27.5400,-82.7400,1019.09,1111122 
COMPS,ioos:station:USF.COMPS:ANM:1,2011-04-04T04:12:00Z,27.5400,-82.7400,1019.08,1111122 
COMPS,ioos:station:USF.COMPS:ANM:1,2011-04-04T04:18:00Z,27.5400,-82.7400,1019.04,1111122 
COMPS,ioos:station:USF.COMPS:ANM:1,2011-04-04T04:24:00Z,27.5400,-82.7400,1018.97,1111122 
COMPS,ioos:station:USF.COMPS:ANM:1,2011-04-04T04:30:00Z,27.5400,-82.7400,1018.94,1111122 
COMPS,ioos:station:USF.COMPS:ANM:1,2011-04-04T04:36:00Z,27.5400,-82.7400,1018.85,1111122 
COMPS,ioos:station:USF.COMPS:ANM:1,2011-04-04T04:42:00Z,27.5400,-82.7400,1018.77,1111122 
COMPS,ioos:station:USF.COMPS:ANM:1,2011-04-04T04:48:00Z,27.5400,-82.7400,1018.68,1111122 
COMPS,ioos:station:USF.COMPS:ANM:1,2011-04-04T04:54:00Z,27.5400,-82.7400,1018.61,1111122 
COMPS,ioos:station:USF.COMPS:ANM:1,2011-04-04T06:00:00Z,27.5400,-82.7400,1018.1,1111122 
COMPS,ioos:station:USF.COMPS:ANM:1,2011-04-04T06:06:00Z,27.5400,-82.7400,1018.04,1111122 
COMPS,ioos:station:USF.COMPS:ANM:1,2011-04-04T06:12:00Z,27.5400,-82.7400,1018.0,1111122 
COMPS,ioos:station:USF.COMPS:ANM:1,2011-04-04T06:18:00Z,27.5400,-82.7400,1018.0,1111122 
COMPS,ioos:station:USF.COMPS:ANM:1,2011-04-04T06:24:00Z,27.5400,-82.7400,1018.01,1111122 
COMPS,ioos:station:USF.COMPS:ANM:1,2011-04-04T06:30:00Z,27.5400,-82.7400,1018.01,1111122 
COMPS,ioos:station:USF.COMPS:ANM:1,2011-04-04T06:36:00Z,27.5400,-82.7400,1018.0,1111122 
COMPS,ioos:station:USF.COMPS:ANM:1,2011-04-04T06:42:00Z,27.5400,-82.7400,1018.0,1111122 
COMPS,ioos:station:USF.COMPS:ANM:1,2011-04-04T06:48:00Z,27.5400,-82.7400,1018.0,1111122 
COMPS,ioos:station:USF.COMPS:ANM:1,2011-04-04T06:54:00Z,27.5400,-82.7400,1017.97,1111122 
COMPS,ioos:station:USF.COMPS:ANM:1,2011-04-04T07:00:00Z,27.5400,-82.7400,1017.89,1111122 
COMPS,ioos:station:USF.COMPS:ANM:1,2011-04-04T07:06:00Z,27.5400,-82.7400,1017.88,1111122 
COMPS,ioos:station:USF.COMPS:ANM:1,2011-04-04T07:12:00Z,27.5400,-82.7400,1017.84,1111122 
COMPS,ioos:station:USF.COMPS:ANM:1,2011-04-04T07:18:00Z,27.5400,-82.7400,1017.78,1111122 
COMPS,ioos:station:USF.COMPS:ANM:1,2011-04-04T07:24:00Z,27.5400,-82.7400,1017.8,1111122 
COMPS,ioos:station:USF.COMPS:ANM:1,2011-04-04T07:30:00Z,27.5400,-82.7400,1017.7,1111122 
COMPS,ioos:station:USF.COMPS:ANM:1,2011-04-04T07:36:00Z,27.5400,-82.7400,1017.62,1111122 
COMPS,ioos:station:USF.COMPS:ANM:1,2011-04-04T07:42:00Z,27.5400,-82.7400,1017.57,1111122 
COMPS,ioos:station:USF.COMPS:ANM:1,2011-04-04T07:48:00Z,27.5400,-82.7400,1017.48,1111122 
COMPS,ioos:station:USF.COMPS:ANM:1,2011-04-04T07:54:00Z,27.5400,-82.7400,1017.45,1111122 
COMPS,ioos:station:USF.COMPS:ANM:1,2011-04-04T10:00:00Z,27.5400,-82.7400,1017.33,1111122 
COMPS,ioos:station:USF.COMPS:ANM:1,2011-04-04T10:06:00Z,27.5400,-82.7400,1017.33,1111122 
COMPS,ioos:station:USF.COMPS:ANM:1,2011-04-04T10:12:00Z,27.5400,-82.7400,1017.33,1111122 
COMPS,ioos:station:USF.COMPS:ANM:1,2011-04-04T10:18:00Z,27.5400,-82.7400,1017.33,1111122 
COMPS,ioos:station:USF.COMPS:ANM:1,2011-04-04T10:24:00Z,27.5400,-82.7400,1017.33,1111122 
COMPS,ioos:station:USF.COMPS:ANM:1,2011-04-04T10:30:00Z,27.5400,-82.7400,1017.33,1111122 
COMPS,ioos:station:USF.COMPS:ANM:1,2011-04-04T10:36:00Z,27.5400,-82.7400,1017.33,1111122 
COMPS,ioos:station:USF.COMPS:ANM:1,2011-04-04T10:42:00Z,27.5400,-82.7400,1017.34,1111122 
COMPS,ioos:station:USF.COMPS:ANM:1,2011-04-04T10:48:00Z,27.5400,-82.7400,1017.33,1111122 
COMPS,ioos:station:USF.COMPS:ANM:1,2011-04-04T10:54:00Z,27.5400,-82.7400,1017.36,1111122 
COMPS,ioos:station:USF.COMPS:ANM:1,2011-04-04T12:00:00Z,27.5400,-82.7400,1017.86,1111122 
COMPS,ioos:station:USF.COMPS:ANM:1,2011-04-04T12:06:00Z,27.5400,-82.7400,1017.88,1111122 
COMPS,ioos:station:USF.COMPS:ANM:1,2011-04-04T12:12:00Z,27.5400,-82.7400,1017.89,1111122 
COMPS,ioos:station:USF.COMPS:ANM:1,2011-04-04T12:18:00Z,27.5400,-82.7400,1018.01,1111122 
COMPS,ioos:station:USF.COMPS:ANM:1,2011-04-04T12:24:00Z,27.5400,-82.7400,1018.02,1111122 
COMPS,ioos:station:USF.COMPS:ANM:1,2011-04-04T12:30:00Z,27.5400,-82.7400,1018.1,1111122 